Hourly Weather Klecie

Today, 27 July, Tuesday

Time Temperature Precipitation Wind Pressure Humidity
00:00 +19°C° 0 mm 2 mps 758 mmHg 94%
01:00 +19°C° 0 mm 2 mps 758 mmHg 95%
02:00 +18°C° 0 mm 2 mps 758 mmHg 95%
03:00 +18°C° 0 mm 2 mps 758 mmHg 95%
04:00 +18°C° 0 mm 2 mps 758 mmHg 96%
05:00 +20°C° 0.1 mm 2 mps 757 mmHg 90%
06:00 +21°C° 0.1 mm 2 mps 757 mmHg 84%
07:00 +24°C° 0.1 mm 2 mps 757 mmHg 78%
08:00 +26°C° 0 mm 2 mps 757 mmHg 70%
09:00 +27°C° 0 mm 3 mps 757 mmHg 62%
10:00 +29°C° 0 mm 3 mps 757 mmHg 54%
11:00 +30°C° 0 mm 3 mps 757 mmHg 51%
12:00 +32°C° 0 mm 4 mps 757 mmHg 47%
13:00 +32°C° 0 mm 4 mps 757 mmHg 43%
14:00 +30°C° 0.1 mm 4 mps 757 mmHg 47%
15:00 +29°C° 0.1 mm 3 mps 757 mmHg 50%
16:00 +28°C° 0.1 mm 3 mps 757 mmHg 54%
17:00 +27°C° 0 mm 3 mps 757 mmHg 61%
18:00 +25°C° 0 mm 3 mps 757 mmHg 68%
19:00 +24°C° 0 mm 2 mps 757 mmHg 76%
20:00 +23°C° 0 mm 2 mps 758 mmHg 80%
21:00 +21°C° 0 mm 2 mps 758 mmHg 85%
22:00 +21°C° 0 mm 1 mps 758 mmHg 89%
23:00 +21°C° 0 mm 1 mps 758 mmHg 87%

Tomorrow, 28 July, Wednesday

Time Temperature Precipitation Wind Pressure Humidity
00:00 +21°C° 0 mm 1 mps 758 mmHg 86%
01:00 +21°C° 0 mm 1 mps 758 mmHg 85%
02:00 +21°C° 0 mm 1 mps 758 mmHg 85%
03:00 +20°C° 0 mm 2 mps 758 mmHg 84%
04:00 +20°C° 0 mm 2 mps 758 mmHg 84%
05:00 +21°C° 0 mm 2 mps 758 mmHg 79%
06:00 +23°C° 0 mm 2 mps 758 mmHg 73%
07:00 +25°C° 0 mm 2 mps 758 mmHg 67%
08:00 +26°C° 0 mm 2 mps 758 mmHg 60%
09:00 +27°C° 0 mm 3 mps 758 mmHg 53%
10:00 +28°C° 0 mm 3 mps 758 mmHg 46%
11:00 +28°C° 0 mm 3 mps 758 mmHg 45%
12:00 +28°C° 0 mm 3 mps 758 mmHg 45%
13:00 +28°C° 0 mm 3 mps 758 mmHg 44%
14:00 +28°C° 0 mm 3 mps 758 mmHg 46%
15:00 +27°C° 0 mm 3 mps 757 mmHg 49%
16:00 +27°C° 0 mm 3 mps 757 mmHg 52%
17:00 +26°C° 0 mm 3 mps 757 mmHg 58%
18:00 +25°C° 0 mm 3 mps 757 mmHg 65%
19:00 +24°C° 0 mm 3 mps 757 mmHg 72%
20:00 +22°C° 0.1 mm 3 mps 757 mmHg 78%
21:00 +20°C° 0.1 mm 2 mps 757 mmHg 84%
22:00 +19°C° 0.1 mm 2 mps 757 mmHg 90%
23:00 +19°C° 0.1 mm 2 mps 757 mmHg 91%

Day after tomorrow, 29 July, Thursday

Time Temperature Precipitation Wind Pressure Humidity
00:00 +18°C° 0.1 mm 2 mps 757 mmHg 93%
01:00 +18°C° 0.1 mm 2 mps 757 mmHg 95%
02:00 +17°C° 0 mm 2 mps 757 mmHg 95%
03:00 +17°C° 0 mm 2 mps 757 mmHg 95%
04:00 +17°C° 0 mm 2 mps 758 mmHg 95%
05:00 +18°C° 0 mm 3 mps 757 mmHg 89%
06:00 +20°C° 0 mm 3 mps 757 mmHg 83%
07:00 +21°C° 0 mm 3 mps 757 mmHg 76%
08:00 +23°C° 0 mm 4 mps 757 mmHg 67%
09:00 +26°C° 0 mm 4 mps 757 mmHg 57%
10:00 +27°C° 0 mm 5 mps 757 mmHg 47%
11:00 +28°C° 0 mm 5 mps 757 mmHg 43%
12:00 +29°C° 0 mm 6 mps 756 mmHg 38%
13:00 +30°C° 0 mm 6 mps 756 mmHg 34%
14:00 +29°C° 0 mm 6 mps 756 mmHg 35%
15:00 +29°C° 0 mm 6 mps 756 mmHg 35%
16:00 +29°C° 0 mm 6 mps 756 mmHg 36%
17:00 +27°C° 0 mm 6 mps 756 mmHg 41%
18:00 +26°C° 0 mm 5 mps 756 mmHg 47%
19:00 +25°C° 0 mm 4 mps 756 mmHg 52%
20:00 +22°C° 0 mm 3 mps 756 mmHg 58%
21:00 +20°C° 0 mm 2 mps 756 mmHg 64%
22:00 +20°C° 0 mm 1 mps 756 mmHg 70%
23:00 +19°C° 0 mm 2 mps 756 mmHg 69%

30 July, Friday

Time Temperature Precipitation Wind Pressure Humidity
00:00 +18°C° 0 mm 2 mps 756 mmHg 68%
01:00 +18°C° 0 mm 2 mps 756 mmHg 67%
02:00 +18°C° 0 mm 2 mps 756 mmHg 67%
03:00 +18°C° 0 mm 2 mps 756 mmHg 67%
04:00 +18°C° 0 mm 2 mps 755 mmHg 67%
05:00 +19°C° 0 mm 3 mps 755 mmHg 64%
06:00 +20°C° 0 mm 3 mps 755 mmHg 60%
07:00 +22°C° 0 mm 4 mps 755 mmHg 56%
08:00 +23°C° 0 mm 4 mps 755 mmHg 50%
09:00 +25°C° 0 mm 5 mps 755 mmHg 44%
10:00 +27°C° 0 mm 6 mps 754 mmHg 38%
11:00 +27°C° 0 mm 6 mps 754 mmHg 36%
12:00 +27°C° 0 mm 7 mps 754 mmHg 33%
13:00 +28°C° 0 mm 7 mps 754 mmHg 30%
14:00 +28°C° 0 mm 7 mps 754 mmHg 31%
15:00 +28°C° 0 mm 7 mps 753 mmHg 31%
16:00 +27°C° 0 mm 7 mps 753 mmHg 32%
17:00 +26°C° 0 mm 6 mps 753 mmHg 38%
18:00 +24°C° 0 mm 6 mps 753 mmHg 44%
19:00 +22°C° 0 mm 5 mps 753 mmHg 50%
20:00 +21°C° 0 mm 5 mps 754 mmHg 56%
21:00 +19°C° 0 mm 4 mps 754 mmHg 61%
22:00 +18°C° 0 mm 4 mps 754 mmHg 67%
23:00 +17°C° 0 mm 4 mps 754 mmHg 71%

31 July, Saturday

Time Temperature Precipitation Wind Pressure Humidity
00:00 +17°C° 0 mm 4 mps 754 mmHg 75%
01:00 +15°C° 0 mm 4 mps 754 mmHg 80%
02:00 +15°C° 0 mm 4 mps 754 mmHg 82%
03:00 +15°C° 0 mm 4 mps 754 mmHg 84%
04:00 +14°C° 0 mm 4 mps 754 mmHg 86%
05:00 +16°C° 0 mm 5 mps 754 mmHg 79%
06:00 +17°C° 0 mm 6 mps 754 mmHg 73%
07:00 +19°C° 0 mm 6 mps 754 mmHg 66%
08:00 +21°C° 0 mm 7 mps 754 mmHg 59%
09:00 +22°C° 0 mm 7 mps 754 mmHg 52%
10:00 +24°C° 0 mm 7 mps 754 mmHg 44%
11:00 +26°C° 0 mm 7 mps 754 mmHg 41%
12:00 +27°C° 0 mm 7 mps 754 mmHg 37%
13:00 +28°C° 0 mm 8 mps 754 mmHg 33%
14:00 +28°C° 0 mm 7 mps 754 mmHg 33%
15:00 +28°C° 0 mm 7 mps 754 mmHg 32%
16:00 +29°C° 0 mm 7 mps 753 mmHg 32%
17:00 +27°C° 0 mm 6 mps 754 mmHg 36%
18:00 +26°C° 0 mm 5 mps 754 mmHg 41%
19:00 +23°C° 0 mm 5 mps 754 mmHg 45%
20:00 +21°C° 0 mm 4 mps 755 mmHg 52%
21:00 +19°C° 0 mm 3 mps 755 mmHg 58%
22:00 +17°C° 0 mm 2 mps 755 mmHg 65%
23:00 +17°C° 0 mm 2 mps 755 mmHg 68%

1 August, Sunday

Time Temperature Precipitation Wind Pressure Humidity
00:00 +16°C° 0 mm 2 mps 755 mmHg 72%
01:00 +16°C° 0 mm 2 mps 755 mmHg 75%
02:00 +15°C° 0 mm 2 mps 755 mmHg 77%
03:00 +15°C° 0 mm 2 mps 755 mmHg 79%
04:00 +15°C° 0 mm 2 mps 755 mmHg 81%
05:00 +16°C° 0 mm 2 mps 755 mmHg 76%
06:00 +19°C° 0 mm 1 mps 755 mmHg 70%
07:00 +20°C° 0 mm 1 mps 755 mmHg 64%
08:00 +22°C° 0 mm 1 mps 755 mmHg 58%
09:00 +24°C° 0 mm 1 mps 755 mmHg 52%
10:00 +23°C° 0 mm 0 mps 754 mmHg 46%
11:00 +25°C° 0 mm 1 mps 754 mmHg 47%
12:00 +25°C° 0 mm 2 mps 754 mmHg 48%
13:00 +25°C° 0 mm 2 mps 753 mmHg 50%
14:00 +23°C° 1.6 mm 2 mps 753 mmHg 63%
15:00 +19°C° 1.6 mm 3 mps 753 mmHg 77%
16:00 +17°C° 1.6 mm 3 mps 753 mmHg 91%
17:00 +17°C° 0.9 mm 3 mps 753 mmHg 92%
18:00 +17°C° 0.9 mm 3 mps 753 mmHg 93%
19:00 +16°C° 0.9 mm 3 mps 753 mmHg 94%
20:00 +16°C° 0.5 mm 3 mps 753 mmHg 95%
21:00 +16°C° 0.5 mm 3 mps 753 mmHg 95%
22:00 +16°C° 0.5 mm 3 mps 753 mmHg 95%
23:00 +16°C° 0.1 mm 2 mps 753 mmHg 94%
Show more